145  
ASUS44 KHUN 131410  
RWRHUN  
 
WEATHER ROUNDUP FOR THE TENNESSEE VALLEY  
NATIONAL WEATHER SERVICE HUNTSVILLE AL  
900 AM CDT MON JUL 13 2020  
 
ALZ001>004-131500-  
NORTHWEST ALABAMA  
 
CITY SKY/WX TMP DP RH WIND PRES REMARKS
 
SHOALS AIRPORT NOT AVBL  

 
 
ALZ005>007-016-131500-  
NORTH CENTRAL ALABAMA  
 
CITY SKY/WX TMP DP RH WIND PRES REMARKS
 
DECATUR AP CLOUDY 72 71 97 NE3 29.94R  
HUNTSVILLE AP CLOUDY 74 71 91 N6 29.93S  
HUN NWS/UAH N/A 73 71 95 NE1 N/A  
MERIDIANVILLE CLOUDY 73 71 94 NW3 29.95R  
VINEMONT AP CLOUDY 74 71 92 CALM 29.97R  

 
 
ALZ008>010-131500-  
NORTHEAST ALABAMA  
 
CITY SKY/WX TMP DP RH WIND PRES REMARKS
 
ALBERTVILLE CLOUDY 72 70 94 CALM 29.96R VSB 1/4  
FORT PAYNE CLOUDY 74 72 92 CALM 29.93S  
SCOTTSBORO AP CLOUDY 75 75 100 NE5 29.94S  

 
 
TNZ076-096-097-131500-  
SOUTHEASTERN MIDDLE TENNESSEE  
 
CITY SKY/WX TMP DP RH WIND PRES REMARKS
 
FAYETTEVILLE CLOUDY 72 72 100 NE3 29.95R  
TULLAHOMA PTSUNNY 73 70 88 CALM 29.95R  
WINCHESTER CLOUDY 73 70 88 CALM 29.94S  

 
   
..SURROUNDING SITES
 
 
 
CITY SKY/WX TMP DP RH WIND PRES REMARKS
 
ATLANTA MOSUNNY 76 69 79 W9 29.93S  
ANNISTON CLOUDY 71 70 96 S5 29.95R  
BIRMINGHAM MOSUNNY 80 72 76 CALM 29.95F  
CHATTANOOGA MOSUNNY 80 71 74 CALM 29.93S  
CORINTH FAIR 79 72 78 CALM 29.94S  
DALTON SUNNY 79 70 73 N5 29.94S  
GADSDEN CLOUDY 72 71 97 CALM 29.95R  
GOLDEN TRNGL CLOUDY 77 77 100 S5 29.93R  
HALEYVILLE CLOUDY 75 73 94 N5 29.98R  
JACKSON TN SUNNY 78 71 79 CALM 29.96R  
MEMPHIS MOSUNNY 82 69 64 E8 29.94R  
NASHVILLE SUNNY 80 68 66 NW3 29.95R  
OXFORD MS FAIR 79 70 73 VRB5 29.95S  
ROME CLOUDY 74 71 91 S3 29.93S  
SELMER MOSUNNY 77 72 83 N5 29.94S  
TUPELO SUNNY 80 72 76 NE8 29.93S  
TUSCALOOSA CLOUDY 75 74 96 CALM 29.93R  

 
 
 
 
CLICK HERE TO GO TO PREVIOUS BULLETINS.

The Nexlab AL Page
The Nexlab TN Page Main Text Page